Regional Weather Roundup
Issued by NWS

Home | Current Version | Previous Version | Graphics & Text | Print | Product List | Glossary On
Versions: 1 2 3 4 5 6 7 8 9 10 11 12 13 14 15 16 17 18 19 20 21 22 23 24 25 26 27 28 29 30 31 32 33 34 35 36 37 38 39 40 41 42 43 44 45 46 47 48 49 50
000
ASUS43 KBIS 300302
RWRND

NORTH DAKOTA REGIONAL WEATHER ROUNDUP
NATIONAL WEATHER SERVICE BISMARCK ND
1000 PM CDT WED MAR 29 2017

NOTE: "FAIR" INDICATES FEW OR NO CLOUDS BELOW 12,000 FEET WITH NO
SIGNIFICANT WEATHER AND/OR OBSTRUCTIONS TO VISIBILITY.


NDZ001>003-009>011-017-300400-
NORTHWEST NORTH DAKOTA

CITY           SKY/WX    TMP DP  RH WIND       PRES   REMARKS
WILLISTON      FAIR      44  32  62 W8        29.84F
MINOT          FAIR      45  42  89 S5        29.85S
MINOT AFB      CLEAR     42  42  99 S6        29.84S
$$

NDZ018>021-031>035-040>046-300400-
SOUTHWEST NORTH DAKOTA

CITY           SKY/WX    TMP DP  RH WIND       PRES   REMARKS
BISMARCK       CLOUDY    57  36  45 S12       29.90F
DICKINSON      FAIR      42  29  59 W3        29.85R
GARRISON         N/A     49  38  65 S6        29.86R
HETTINGER ARPT MOCLDY    48  37  65 S12       29.91R
$$

NDZ004>008-012>016-024-026-027-054-300400-
NORTHEAST NORTH DAKOTA

CITY           SKY/WX    TMP DP  RH WIND       PRES   REMARKS
GRAND FORKS    PTCLDY    49  38  65 S18       29.97F
GRND FRKS AFB  CLEAR     48  37  65 S22G28    29.96F
DEVILS LAKE    MOCLDY    50  34  54 S15       29.91F
$$

NDZ022-023-025-028>030-036>039-047>053-300400-
SOUTHEAST NORTH DAKOTA

CITY           SKY/WX    TMP DP  RH WIND       PRES   REMARKS
FARGO          CLEAR     47  38  71 S18G28    30.05S
JAMESTOWN      FAIR      46  36  68 S15       29.96S
$$




USA.gov is the U.S. government's official web portal to all federal, state and local government web resources and services.